Location: Presov
(49.0000°N, 21.2500°E)
Time: 06:46:22
(UTC+02:00)

Transit 2A Rocket - Pass Details

Date: 23 April 2021
Orbit: 594 x 909 km, 66.7° (Epoch: 07 May)

Event Time Altitude Azimuth Distance (km) Brightness Sun altitude
Rises 17:30:57 0° 273° (W) 2,869 9.6 19.8°
Reaches altitude 10° 17:34:14 10° 299° (WNW) 1,943 8.3 19.2°
Maximum altitude 17:36:34 14° 332° (NNW) 1,683 7.2 18.9°
Drops below altitude 10° 17:38:53 10° 5° (N) 1,939 7.1 18.5°
Sets 17:42:10 0° 31° (NNE) 2,859 7.7 17.9°
